{"data":{"norad_id":66971,"intl_designator":"2025-288N","name":"STARLINK-35678","alt_names":[],"object_type":"PAYLOAD","status":"ACTIVE","operator":null,"country":"US","launch_date":"2025-12-08","launch_site_code":"AFETR","launch_vehicle":null,"mission":null,"orbit_class":"UNKNOWN","rcs_meters":null,"size_class":null,"mass_kg":null,"dimensions":null,"purposes":["comms"],"wikipedia_slug":null,"has_3d_model":false,"image_url":null,"decayed_at":null,"tle_current":{"epoch":"2026-05-25T03:59:45.566304Z","epoch_age_seconds":56574,"freshness":"FRESH","line1":"1 66971U 25288N   26145.16649961  .00016371  00000+0  60314-3 0  9998","line2":"2 66971  43.0023 311.5413 0002326 265.9181  94.1405 15.27578050 26984","mean_motion":15.2757805,"eccentricity":0.0002326,"inclination_deg":43.0023,"raan_deg":311.5413,"arg_perigee_deg":265.9181,"mean_anomaly_deg":94.1405,"bstar":0.00060314,"rev_number":2698,"period_min":94.266869048033,"perigee_km":481.45902180328,"apogee_km":484.65084829147,"semimajor_km":6861.1919350474,"source":"CELESTRAK","updated_at":"2026-05-25T13:38:21.422719Z"}}}